Location: Most
(50.5133°N, 13.6207°E)
Time: 18:58:15
(UTC+02:00)

ISS - Pass Details

Date: 20 May 2019
Orbit: 407 x 410 km, 51.6° (Epoch: 23 May)

Event Time Altitude Azimuth Distance (km) Brightness Sun altitude
Rises 01:13:53 0° 279° (W) 2,337 0.1 -19.6°
Reaches altitude 10° 01:15:58 10° 281° (W) 1,476 -0.9 -19.5°
Maximum altitude 01:19:17 76° 8° (N) 427 -3.7 -19.5°
Drops below altitude 10° 01:22:35 10° 94° (E) 1,476 -1.0 -19.5°
Sets 01:24:41 0° 96° (E) 2,337 0.0 -19.4°
